Location: DARK SKY Beskydy - Park tmavé oblohy, www.darkskybeskydy.cz
(49.4926°N, 18.5016°E)
Time: 23:50:42
(UTC+02:00)

ACS3 Solar Sail - Pass Details

Date: 22 June 2024
Orbit: 992 x 1023 km, 97.4° (Epoch: 12 July)

Event Time Altitude Azimuth Distance (km) Brightness Sun altitude
Exits shadow 23:15:39 - 204° (SSW) 3,055 7.0 -14.2°
Reaches altitude 10° 23:16:33 10° 209° (SSW) 2,761 6.8 -14.3°
Maximum altitude 23:21:57 31° 269° (W) 1,685 6.2 -14.6°
Drops below altitude 10° 23:27:23 10° 330° (NNW) 2,767 8.5 -14.9°
Sets 23:30:13 0° 341° (NNW) 3,720 9.8 -15.0°
